Location: Newark
(40.3500°N, 15.2333°E)
Time: 13:20:05
(UTC+00:00)

Courier 1B Rocket - All Passes

Search period start: 17 January 2020 00:00
Search period end: 27 January 2020 00:00
Orbit: 920 x 1202 km, 28.2° (Epoch: 16 January)

Date Brightness Start Highest point End Pass type
(mag) Time Alt. Az. Time Alt. Az. Time Alt. Az.
17 Jan - 13:24:32 10° SSW 13:28:47 18° SSE 13:32:56 10° ESE daylight
17 Jan - 15:16:11 10° SW 15:21:19 26° S 15:26:24 10° ESE daylight
17 Jan - 17:09:08 10° WSW 17:13:52 23° S 17:18:40 10° SE visible
17 Jan - 19:04:25 10° SW 19:06:18 11° SSW 19:08:12 10° S visible
18 Jan - 12:24:35 10° SSW 12:28:04 15° SSE 12:31:27 10° SE daylight
18 Jan - 14:15:30 10° SW 14:20:34 25° S 14:25:32 10° ESE daylight
18 Jan - 16:08:08 10° WSW 16:13:09 25° S 16:18:09 10° SE daylight
18 Jan - 18:02:11 10° SW 18:05:37 15° SSW 18:09:04 10° SSE visible
19 Jan - 11:25:29 10° S 11:27:20 11° SSE 11:29:10 10° SE daylight
19 Jan - 13:14:54 10° SW 13:19:49 23° SSE 13:24:35 10° ESE daylight
19 Jan - 15:07:13 10° WSW 15:12:24 27° S 15:17:31 10° SE daylight
19 Jan - 17:00:42 10° WSW 17:04:55 19° SSW 17:09:09 10° SSE visible
20 Jan - 12:14:28 10° SSW 12:19:03 20° SSE 12:23:28 10° ESE daylight
20 Jan - 14:06:20 10° SW 14:11:39 27° S 14:16:48 10° ESE daylight
20 Jan - 15:59:28 10° WSW 16:04:12 22° SSW 16:08:54 10° SE daylight
20 Jan - 17:55:19 10° SW 17:56:35 11° SSW 17:57:51 10° SSW visible
21 Jan - 11:14:19 10° SSW 11:18:17 16° SSE 11:22:07 10° SE daylight
21 Jan - 13:05:31 10° SW 13:10:52 26° S 13:16:00 10° ESE daylight
21 Jan - 14:58:21 10° WSW 15:03:29 25° S 15:08:29 10° SE daylight
21 Jan - 16:52:37 10° SW 16:55:55 15° SSW 16:59:12 10° SSE visible
22 Jan - 10:14:46 10° S 10:17:30 12° SSE 10:20:11 10° SE daylight
22 Jan - 12:04:48 10° SW 12:10:05 24° S 12:15:07 10° ESE daylight
22 Jan - 13:57:19 10° WSW 14:02:43 27° S 14:07:56 10° SE daylight
22 Jan - 15:50:59 10° WSW 15:55:14 19° SSW 15:59:26 10° SSE daylight
23 Jan - 11:04:15 10° SSW 11:09:16 21° SSE 11:14:03 10° ESE daylight
23 Jan - 12:56:19 10° SW 13:01:56 28° S 13:07:16 10° ESE daylight
23 Jan - 14:49:37 10° WSW 14:54:31 23° SSW 14:59:17 10° SE daylight
23 Jan - 16:45:56 10° SW 16:46:52 10° SSW 16:47:49 10° SSW visible
24 Jan - 10:03:57 10° SSW 10:08:26 18° SSE 10:12:45 10° ESE daylight
24 Jan - 11:55:24 10° SW 12:01:06 27° S 12:06:31 10° ESE daylight
24 Jan - 13:48:23 10° WSW 13:53:46 26° S 13:58:56 10° SE daylight
24 Jan - 15:42:51 10° SW 15:46:12 15° SSW 15:49:31 10° S daylight
25 Jan - 09:04:09 10° S 09:07:36 14° SSE 09:10:58 10° SE daylight
25 Jan - 10:54:34 10° SW 11:00:15 25° S 11:05:38 10° ESE daylight
25 Jan - 12:47:15 10° WSW 12:52:58 28° S 12:58:24 10° SE daylight
25 Jan - 14:41:04 10° WSW 14:45:31 19° SSW 14:49:51 10° SSE daylight
26 Jan - 09:53:55 10° SSW 09:59:22 23° SSE 10:04:34 10° ESE daylight
26 Jan - 11:46:09 10° WSW 11:52:08 29° S 11:57:46 10° ESE daylight
26 Jan - 13:39:36 10° WSW 13:44:48 24° SSW 13:49:45 10° SE daylight
26 Jan - 15:35:56 10° SW 15:37:08 11° SSW 15:38:19 10° SSW daylight
